This demonstration page uses our WeatherBlox Daily Observations layout. Learn more.

38.88101, -77.10428

Hourly Observations for October 19, 2017

Temp ( °F °C ) Dew Point ( °F °C ) Humidity (%) Winds ( mph kmh ) Pressure ( in mb ) Visibility ( mi km ) Precip ( " mm )
12:52 am 00:52 Mostly Cloudy 53 11.7 49 9.4 86 86 SW 6 9 30.31 1026 10 16.0934 0 0
1:52 am 01:52 Partly Cloudy 53 11.7 48 8.9 83 83 SW 5 7 30.3 1026 10 16.0934 0 0
2:52 am 02:52 Partly Cloudy 51 10.6 46 7.8 83 83 SW 5 7 30.29 1026 10 16.0934 0 0
3:52 am 03:52 Partly Cloudy 51 10.6 46 7.8 83 83 WSW 5 7 30.28 1025 10 16.0934 0 0
4:52 am 04:52 Mostly Cloudy 51 10.6 47 8.3 86 86 SSW 3 6 30.28 1025 10 16.0934 0 0
5:52 am 05:52 Mostly Cloudy 49 9.4 47 8.3 93 93 SW 6 9 30.28 1025 10 16.0934 0 0
6:52 am 06:52 Partly Cloudy 50 10 47 8.3 89 89 WSW 3 6 30.28 1025 10 16.0934 0 0
7:52 am 07:52 Mostly Sunny 50 10 48 8.9 93 93 SSW 3 6 30.28 1025 10 16.0934 0 0
8:52 am 08:52 Mostly Sunny 54 12.2 50 10 87 87 SSW 6 9 30.29 1026 10 16.0934 0 0
9:52 am 09:52 Mostly Sunny 58 14.4 51 10.6 78 78 S 7 11 30.29 1026 10 16.0934 0 0
10:52 am 10:52 Mostly Sunny 61 16.1 50 10 67 67 S 9 15 30.29 1026 10 16.0934 0 0
11:52 am 11:52 Sunny 65 18.3 49 9.4 56 56 S 9 15 30.27 1025 10 16.0934 0 0
12:52 pm 12:52 Sunny 68 20 46 7.8 45 45 S 10 17 30.24 1024 10 16.0934 0 0
1:52 pm 13:52 Sunny 69 20.6 48 8.9 47 47 S 10 17 30.21 1023 10 16.0934 0 0
2:52 pm 14:52 Mostly Sunny 71 21.7 49 9.4 46 46 S 10 17 30.19 1022 10 16.0934 0 0
3:52 pm 15:52 Partly Cloudy 71 21.7 51 10.6 49 49 S 10 17 30.17 1022 10 16.0934 0 0
4:52 pm 16:52 Partly Cloudy 71 21.7 51 10.6 49 49 S 9 15 30.16 1021 10 16.0934 0 0
5:52 pm 17:52 Partly Cloudy 69 20.6 46 7.8 44 44 SSW 5 7 30.16 1021 10 16.0934 0 0
6:52 pm 18:52 Mostly Clear 65 18.3 54 12.2 68 68 S 9 15 30.15 1021 10 16.0934 0 0
7:52 pm 19:52 Clear 63 17.2 55 12.8 76 76 S 7 11 30.15 1021 10 16.0934 0 0
8:52 pm 20:52 Clear 63 17.2 52 11.1 68 68 SSW 5 7 30.16 1021 10 16.0934 0 0
9:52 pm 21:52 Mostly Clear 60 15.6 51 10.6 72 72 SW 5 7 30.16 1022 10 16.0934 0 0
10:52 pm 22:52 Mostly Clear 59 15 53 11.7 81 81 SSW 6 9 30.16 1022 10 16.0934 0 0
11:52 pm 23:52 Clear 59 15 54 12.2 83 83 S 5 7 30.17 1022 10 16.0934 0 0

Powered by AerisWeather